Regional Weather Roundup
Issued by NWS

Home | Current Version | Previous Version | Text Only | Print | Product List | Glossary Off
Versions: 1 2 3 4 5 6 7 8 9 10 11 12 13 14 15 16 17 18 19 20 21 22 23 24 25 26 27 28 29 30 31 32 33 34 35 36 37 38 39 40 41 42 43 44 45 46 47 48 49 50

941
ASUS43 KLMK 200710
RWRKY
KENTUCKY REGIONAL WEATHER ROUNDUP
NATIONAL WEATHER SERVICE LOUISVILLE KY
300 AM EDT FRI APR 20 2018

NOTE "FAIR" INDICATES FEW OR NO CLOUDS BELOW 12,000 FEET
WITH NO SIGNIFICANT WEATHER AND/OR OBSTRUCTIONS TO VISIBILITY.

KYZ001>023-026-027-061>063-070>075-200800-
WESTERN AND SOUTH CENTRAL KENTUCKY

CITY           SKY/WX    TMP DP  RH WIND       PRES   REMARKS
PADUCAH        FAIR      39  33  79 NE3       30.38S
HENDERSON      FAIR      44  28  53 NE8       30.41R
OWENSBORO      FAIR      44  28  53 N6        30.40R
HOPKINSVILLE   FAIR      40  32  73 CALM      30.35F
BOWLING GREEN  FAIR      37  35  92 CALM      30.36S
GLASGOW        FAIR      33  32  98 CALM      30.36R
$$

KYZ024-025-028>034-038-045-046-053-200800-
NORTH CENTRAL KENTUCKY

CITY           SKY/WX    TMP DP  RH WIND       PRES   REMARKS
LOUISVILLE/SDF FAIR      44  25  47 N9G21     30.37S
LOUISVILLE/LOU FAIR      43  25  49 N8        30.38R
FORT KNOX      FAIR      40  26  57 N7        30.37S
$$

KYZ035>037-039>044-047>052-055>060-089>105-200800-
NORTHEAST KENTUCKY

CITY           SKY/WX    TMP DP  RH WIND       PRES   REMARKS
LEXINGTON      FAIR      39  28  64 N8        30.34S WCI  33
COVINGTON      FAIR      38  27  64 N7        30.36R WCI  33
FRANKFORT      FAIR      39  26  59 NW6       30.34S WCI  35
$$

KYZ054-064>069-076>088-106>120-200800-
SOUTHEAST KENTUCKY

CITY           SKY/WX    TMP DP  RH WIND       PRES   REMARKS
JACKSON        FAIR      36  29  75 SW5       30.32S WCI  32
LONDON         FAIR      33  31  92 CALM      30.33F
SOMERSET       FAIR      32  32 100 CALM      30.36R
MIDDLESBORO    FAIR      31  31 100 CALM      30.35S
MONTICELLO     FAIR      27  25  92 N8        30.36S WCI  19
$$





USA.gov is the U.S. government's official web portal to all federal, state and local government web resources and services.